Location: Newark
(51.3368°N, 0.0299°E)
Time: 00:30:28
(UTC+00:00)

ISS - Visible Passes

Search period start: 27 January 2022 00:00
Search period end: 06 February 2022 00:00
Orbit: 413 x 422 km, 51.6° (Epoch: 26 January)

Date Brightness Start Highest point End Pass type
(mag) Time Alt. Az. Time Alt. Az. Time Alt. Az.
27 Jan -3.8 18:03:27 10° W 18:06:48 83° N 18:08:31 26° E visible
27 Jan -1.1 19:40:15 10° W 19:41:27 20° W 19:41:27 20° W visible
28 Jan -3.8 17:15:23 10° W 17:18:44 89° N 17:22:05 10° E visible
28 Jan -3.8 18:52:12 10° W 18:55:24 79° WSW 18:55:24 79° WSW visible
29 Jan -3.8 18:04:08 10° W 18:07:29 88° N 18:09:24 24° E visible
29 Jan -1.2 19:40:58 10° W 19:42:20 21° W 19:42:20 21° W visible
30 Jan -3.3 18:52:52 10° W 18:56:08 53° SSW 18:56:23 51° S visible
31 Jan -3.6 18:04:47 10° W 18:08:07 69° SSW 18:10:30 18° ESE visible
31 Jan -1.1 19:41:55 10° W 19:43:27 18° WSW 19:43:27 18° WSW visible
01 Feb -2.1 18:53:39 10° W 18:56:36 29° SSW 18:57:40 24° S visible
02 Feb -2.6 18:05:29 10° W 18:08:39 40° SSW 18:11:48 10° SE visible
03 Feb -0.9 18:54:54 10° WSW 18:56:53 15° SW 18:58:52 10° S visible
04 Feb -1.3 18:06:24 10° W 18:09:00 21° SW 18:11:38 10° SSE visible
